Torna al catalogo

STARLINK-4790

AttivoComunicazioniVLEO
NORAD 53859·PAYLOAD·🇺🇸 United States

Lanciato Sep 19, 2022 da Cape Canaveral Space Force Station

Loading…

Prossimi Passaggi (prossime 24 ore)

TLE

AggiornatoSource: CelesTrak SupGP

Epoca: Sep 15, 2026, 01:13 UTC

1 53859C 22114AT  26258.05118056  .00015411  00000+0  49570-3 0  2586
2 53859  53.1591 149.3405 0001353  78.3752  95.3804 15.31685912    17

Traccia STARLINK-4790 in tempo reale con AllMySat

Download on the App Store